TimeICT,TemperatureF,Dew PointF,Humidity,Sea Level PressureIn,VisibilityMPH,Wind Direction,Wind SpeedMPH,Gust SpeedMPH,PrecipitationIn,Events,Conditions,WindDirDegrees,DateUTC
1:00 AM,79,65,54,29.88,6,ENE,5.8,,,,Scattered Clouds,60,2012-11-15 18:00:00
4:00 AM,71.6,68.0,88,29.86,6.2,North,2.3,-,N/A,,Mostly Cloudy,10,2012-11-15 21:00:00
5:00 AM,73.4,68.0,83,29.86,6.2,Variable,2.3,-,N/A,,Mostly Cloudy,0,2012-11-15 22:00:00
6:00 AM,73.4,66.2,78,29.89,6.2,North,5.8,-,N/A,,Scattered Clouds,360,2012-11-15 23:00:00
7:00 AM,74,64,65,29.90,6,North,5.8,,,,Partly Cloudy,0,2012-11-16 00:00:00
7:00 AM,73.4,66.2,78,29.92,6.2,North,5.8,-,N/A,,Mostly Cloudy,10,2012-11-16 00:00:00
8:00 AM,77.0,68.0,74,29.92,6.2,North,6.9,-,N/A,,Mostly Cloudy,360,2012-11-16 01:00:00
9:00 AM,80.6,68.0,65,29.95,6.2,North,6.9,-,N/A,,Mostly Cloudy,350,2012-11-16 02:00:00
10:00 AM,86.0,68.0,55,29.95,6.2,NNE,5.8,-,N/A,,Scattered Clouds,30,2012-11-16 03:00:00
11:00 AM,87.8,69.8,55,29.92,6.2,NNE,6.9,-,N/A,,Scattered Clouds,20,2012-11-16 04:00:00
12:00 PM,87.8,69.8,55,29.89,6.2,North,5.8,-,N/A,,Scattered Clouds,10,2012-11-16 05:00:00
1:00 PM,91,67,35,29.82,7,North,10.4,,,,Scattered Clouds,0,2012-11-16 06:00:00
1:00 PM,89.6,69.8,52,29.83,6.2,North,6.9,-,N/A,,Scattered Clouds,10,2012-11-16 06:00:00
2:00 PM,91.4,69.8,49,29.83,6.2,ENE,4.6,-,N/A,,Mostly Cloudy,60,2012-11-16 07:00:00
3:00 PM,91.4,71.6,52,29.80,6.2,NE,4.6,-,N/A,,Mostly Cloudy,40,2012-11-16 08:00:00
4:00 PM,87.8,69.8,55,29.80,6.2,North,8.1,-,N/A,,Mostly Cloudy,350,2012-11-16 09:00:00
5:00 PM,86.0,69.8,58,29.83,6.2,North,8.1,-,N/A,,Mostly Cloudy,350,2012-11-16 10:00:00
6:00 PM,86.0,69.8,58,29.83,6.2,North,4.6,-,N/A,,Mostly Cloudy,360,2012-11-16 11:00:00
7:00 PM,85,67,46,29.83,6,NNE,2.3,,,,Partly Cloudy,20,2012-11-16 12:00:00
7:00 PM,84.2,71.6,66,29.86,6.2,NNE,3.5,-,N/A,,Mostly Cloudy,20,2012-11-16 12:00:00
8:00 PM,84.2,71.6,66,29.89,6.2,NNE,3.5,-,N/A,,Mostly Cloudy,20,2012-11-16 13:00:00